Weather History for Lincoln, CA

Change the Weather History Date:

Sunday, October 23, 2011

  Actual Average (KAUN) Record (KAUN)
Temperature  
Mean Temperature 66 °F -  
Max Temperature 82 °F 72 °F 90 °F (1965)
Min Temperature 50 °F 49 °F 37 °F (1975)
Cooling Degree Days 1    
Growing Degree Days 16 (Base 50)    
Moisture  
Dew Point 51 °F    
Average Humidity 68    
Maximum Humidity 100    
Minimum Humidity 35    
Precipitation  
Precipitation 0.00 in - - ()
Sea Level Pressure  
Sea Level Pressure 29.97 in    
Wind  
Wind Speed 2 mph (North)    
Max Wind Speed 7 mph    
Max Gust Speed -    
Visibility 9 miles    
Events      
Averages and records for this station are not official NWS values.
T = Trace of Precipitation, MM = Missing Value Source: NWS Daily Summary

Daily Weather History Graph

Daily Weather History Graph

Search for Another Location

Airport:

Trip Planner

Search our weather history database for the weather conditions in past years. The results will help you decide how hot, cold, wet, or windy it might be!

Date:

Astronomy

Oct. 23, 2011 Rise Set
Actual Time 7:22 AM PDT 6:16 PM PDT
Civil Twilight 6:55 AM PDT 6:43 PM PDT
Nautical Twilight 6:24 AM PDT 7:14 PM PDT
Astronomical Twilight 5:53 AM PDT 7:45 PM PDT
Moon 3:37 AM PDT (10/23) 4:08 PM PDT (10/23)
Length of Visible Light 11h 47m
Length of Day
10h 53m
Waning Crescent, 13% of the Moon is Illuminated
Oct 23
Waning Crescent
Oct 26
New
Nov 2
First Quarter
Nov 10
Full
Nov 18
Last Quarter

Hourly Weather History & Observations

Time (PDT) Temp. Heat Index Dew Point Humidity Pressure Visibility Wind Dir Wind Speed Gust Speed Precip Events Conditions
12:15 AM 53.6 °F - 51.8 °F 94% 29.98 in 10.0 mi ENE 4.6 mph - N/A   Clear
12:55 AM 55.4 °F - 53.6 °F 94% 29.99 in 10.0 mi East 3.5 mph - N/A   Clear
1:15 AM 53.6 °F - 51.8 °F 94% 29.98 in 2.0 mi East 4.6 mph - N/A   Clear
1:35 AM 53.6 °F - 51.8 °F 94% 29.98 in 2.5 mi ENE 6.9 mph - N/A   Clear
1:55 AM 53.6 °F - 51.8 °F 94% 29.98 in 5.0 mi East 4.6 mph - N/A   Clear
2:15 AM 53.6 °F - 51.8 °F 94% 29.98 in 3.0 mi East 3.5 mph - N/A   Clear
2:35 AM 53.6 °F - 51.8 °F 94% 29.98 in 7.0 mi East 3.5 mph - N/A   Clear
2:55 AM 53.6 °F - 51.8 °F 94% 29.98 in 10.0 mi ENE 3.5 mph - N/A   Clear
3:15 AM 53.6 °F - 51.8 °F 94% 29.98 in 10.0 mi ENE 4.6 mph - N/A   Clear
3:35 AM 53.6 °F - 51.8 °F 94% 29.98 in 10.0 mi NE 4.6 mph - N/A   Clear
3:55 AM 53.6 °F - 50.0 °F 88% 29.98 in 10.0 mi Calm Calm - N/A   Clear
4:15 AM 51.8 °F - 51.8 °F 100% 29.98 in 10.0 mi Calm Calm - N/A   Clear
4:35 AM 53.6 °F - 51.8 °F 94% 29.98 in 10.0 mi Calm Calm - N/A   Clear
4:55 AM 51.8 °F - 50.0 °F 94% 29.98 in 10.0 mi Calm Calm - N/A   Clear
5:15 AM 51.8 °F - 50.0 °F 94% 29.98 in 10.0 mi Calm Calm - N/A   Clear
5:35 AM 51.8 °F - 50.0 °F 94% 29.98 in 5.0 mi Calm Calm - N/A   Clear
5:55 AM 51.8 °F - 50.0 °F 94% 29.98 in 10.0 mi Calm Calm - N/A   Clear
6:15 AM 51.8 °F - 50.0 °F 94% 29.98 in 10.0 mi Calm Calm - N/A   Clear
6:35 AM 51.8 °F - 50.0 °F 94% 29.99 in 10.0 mi Calm Calm - N/A   Clear
6:55 AM 51.8 °F - 50.0 °F 94% 29.99 in 10.0 mi Calm Calm - N/A   Clear
7:15 AM 51.8 °F - 50.0 °F 94% 29.98 in 10.0 mi Calm Calm - N/A   Clear
7:35 AM 50.0 °F - 46.4 °F 87% 29.99 in 10.0 mi Calm Calm - N/A   Clear
7:55 AM 50.0 °F - 48.2 °F 94% 29.99 in 10.0 mi Calm Calm - N/A   Clear
8:15 AM 51.8 °F - 50.0 °F 94% 30.00 in 10.0 mi Calm Calm - N/A   Clear
8:35 AM 55.4 °F - 51.8 °F 88% 30.00 in 10.0 mi Calm Calm - N/A   Clear
8:55 AM 59.0 °F - 53.6 °F 82% 30.01 in 10.0 mi Calm Calm - N/A   Clear
9:15 AM 62.6 °F - 53.6 °F 72% 30.01 in 10.0 mi Calm Calm - N/A   Clear
9:35 AM 66.2 °F - 51.8 °F 60% 30.01 in 10.0 mi Calm Calm - N/A   Clear
9:55 AM 68.0 °F - 50.0 °F 52% 30.01 in 10.0 mi Calm Calm - N/A   Clear
10:15 AM 69.8 °F - 50.0 °F 49% 30.01 in 10.0 mi Calm Calm - N/A   Clear
10:35 AM 69.8 °F - 50.0 °F 49% 30.01 in 10.0 mi Calm Calm - N/A   Clear
11:15 AM 71.6 °F - 51.8 °F 50% 30.01 in 10.0 mi NNW 3.5 mph - N/A   Clear
11:35 AM 73.4 °F - 50.0 °F 44% 30.00 in 10.0 mi Calm Calm - N/A   Clear
11:55 AM 77.0 °F - 50.0 °F 39% 30.00 in 10.0 mi Calm Calm - N/A   Clear
12:15 PM 77.0 °F - 51.8 °F 41% 29.99 in 10.0 mi NW 3.5 mph - N/A   Clear
12:55 PM 78.8 °F - 51.8 °F 39% 29.97 in 10.0 mi West 3.5 mph - N/A   Clear
1:15 PM 78.8 °F - 51.8 °F 39% 29.96 in 10.0 mi West 3.5 mph - N/A   Clear
1:35 PM 78.8 °F - 51.8 °F 39% 29.96 in 10.0 mi West 4.6 mph - N/A   Clear
1:55 PM 78.8 °F - 50.0 °F 36% 29.95 in 10.0 mi Calm Calm - N/A   Clear
2:15 PM 80.6 °F - 51.8 °F 37% 29.94 in 10.0 mi Calm Calm - N/A   Clear
2:35 PM 80.6 °F - 51.8 °F 37% 29.93 in 10.0 mi WNW 4.6 mph - N/A   Clear
2:55 PM 80.6 °F - 51.8 °F 37% 29.93 in 10.0 mi Calm Calm - N/A   Clear
3:15 PM 80.6 °F - 51.8 °F 37% 29.92 in 10.0 mi Calm Calm - N/A   Clear
3:35 PM 82.4 °F - 51.8 °F 35% 29.92 in 10.0 mi Calm Calm - N/A   Clear
3:55 PM 80.6 °F - 51.8 °F 37% 29.91 in 10.0 mi WNW 4.6 mph - N/A   Clear
4:15 PM 80.6 °F - 51.8 °F 37% 29.91 in 10.0 mi Calm Calm - N/A   Clear
4:35 PM 80.6 °F - 51.8 °F 37% 29.90 in 10.0 mi WNW 4.6 mph - N/A   Clear
4:55 PM 80.6 °F - 51.8 °F 37% 29.90 in 10.0 mi Calm Calm - N/A   Clear
5:15 PM 80.6 °F 80.3 °F 53.6 °F 39% 29.90 in 10.0 mi NW 3.5 mph - N/A   Clear
5:35 PM 78.8 °F - 53.6 °F 42% 29.90 in 10.0 mi WNW 3.5 mph - N/A   Clear
5:55 PM 77.0 °F - 53.6 °F 44% 29.90 in 10.0 mi Calm Calm - N/A   Clear
6:15 PM 73.4 °F - 53.6 °F 50% 29.90 in 10.0 mi Calm Calm - N/A   Clear
6:35 PM 71.6 °F - 53.6 °F 53% 29.90 in 10.0 mi Calm Calm - N/A   Clear
7:35 PM 60.8 °F - 53.6 °F 77% 29.91 in 10.0 mi NE 4.6 mph - N/A   Clear
7:55 PM 60.8 °F - 53.6 °F 77% 29.91 in 10.0 mi ENE 3.5 mph - N/A   Clear
8:15 PM 59.0 °F - 53.6 °F 82% 29.91 in 10.0 mi ENE 5.8 mph - N/A   Clear
8:35 PM 57.2 °F - 53.6 °F 88% 29.91 in 10.0 mi ENE 5.8 mph - N/A   Clear
8:55 PM 57.2 °F - 53.6 °F 88% 29.92 in 10.0 mi ENE 6.9 mph - N/A   Clear
9:15 PM 55.4 °F - 53.6 °F 94% 29.92 in 10.0 mi ENE 4.6 mph - N/A   Clear
9:35 PM 57.2 °F - 53.6 °F 88% 29.92 in 10.0 mi NE 3.5 mph - N/A   Clear
10:15 PM 55.4 °F - 51.8 °F 88% 29.93 in 10.0 mi NE 3.5 mph - N/A   Clear
10:35 PM 55.4 °F - 51.8 °F 88% 29.92 in 10.0 mi NE 4.6 mph - N/A   Clear
10:55 PM 55.4 °F - 51.8 °F 88% 29.92 in 10.0 mi ENE 5.8 mph - N/A   Clear
11:15 PM 53.6 °F - 51.8 °F 94% 29.92 in 10.0 mi East 4.6 mph - N/A   Clear
11:35 PM 53.6 °F - 51.8 °F 94% 29.92 in 10.0 mi East 5.8 mph - N/A   Clear
11:55 PM 55.4 °F - 51.8 °F 88% 29.92 in 10.0 mi East 4.6 mph - N/A   Clear